Location: Newark
(44.3299°N, 23.7597°E)
Time: 08:16:54
(UTC+00:00)

Envisat - Pass Details

Date: 02 February 2022
Orbit: 764 x 765 km, 98.2° (Epoch: 22 May)

Event Time Altitude Azimuth Distance (km) Brightness Sun altitude
Rises 04:56:26 0° 357° (N) 3,241 6.1 -8.6°
Reaches altitude 10° 04:59:41 10° 335° (NNW) 2,310 5.1 -8.0°
Maximum altitude 05:02:29 15° 301° (WNW) 1,975 4.5 -7.5°
Drops below altitude 10° 05:05:17 10° 267° (W) 2,303 4.9 -7.1°
Sets 05:08:31 0° 245° (WSW) 3,225 5.8 -6.5°
